This demonstration page uses our WeatherBlox Daily Observations layout. Learn more.

40.92945, -100.16068

Hourly Observations for July 6, 2015

Temp ( °F °C ) Dew Point ( °F °C ) Humidity (%) Winds ( mph kmh ) Pressure ( in mb ) Visibility ( mi km ) Precip ( " mm )
12:15 am 00:15 Mostly Cloudy with Light Rain 78 25.5 63 17.2 60 60 S 6 9 29.65 1004 10 16.0934 N/A
12:35 am 00:35 Partly Cloudy with Light Rain 76 24.5 66 19.1 72 72 Calm 29.65 1004 10 16.0934 N/A
12:55 am 00:55 Partly Cloudy with Light Rain 74 23.5 68 20 81 81 N 7 11 29.71 1006 10 16.0934 N/A
1:15 am 01:15 Partly Cloudy 74 23.4 67 19.4 78 78 N 9 15 29.74 1007 10 16.0934 N/A
1:35 am 01:35 Mostly Cloudy 74 23.1 67 19.5 80 80 NE 9 15 29.77 1008 7 11.26538 N/A
1:55 am 01:55 Mostly Cloudy 73 22.7 67 19.3 81 81 NNE 10 17 29.77 1008 10 16.0934 N/A
2:15 am 02:15 Cloudy 72 22.2 67 19.5 85 85 N 7 11 29.8 1009 10 16.0934 N/A
2:35 am 02:35 Mostly Cloudy 72 22 67 19.5 86 86 N 7 11 29.8 1009 10 16.0934 N/A
2:55 am 02:55 Partly Cloudy 71 21.8 67 19.5 87 87 N 5 7 29.8 1009 10 16.0934 N/A
3:15 am 03:15 Clear 71 21.6 67 19.2 86 86 N 3 6 29.8 1009 10 16.0934 N/A
3:35 am 03:35 Clear 70 21.2 66 19 87 87 N 3 6 29.83 1010 10 16.0934 N/A
3:55 am 03:55 Clear 70 21 66 19 88 88 NNE 5 7 29.8 1009 10 16.0934 N/A
4:15 am 04:15 Clear 70 21 67 19.2 90 90 N 7 11 29.8 1009 10 16.0934 N/A
4:35 am 04:35 Mostly Cloudy with Light Drizzle 69 20.7 67 19.2 91 91 WNW 3 6 29.83 1010 10 16.0934 N/A
4:55 am 04:55 Mostly Cloudy with Light Rain 69 20.7 67 19.3 92 92 ESE 3 6 29.83 1010 10 16.0934 N/A
5:15 am 05:15 Mostly Cloudy with Light Rain 69 20.5 67 19.2 92 92 ENE 9 15 29.8 1009 10 16.0934 0.01 0.254
5:35 am 05:35 Partly Cloudy with Light Drizzle 69 20.5 67 19.4 93 93 NE 6 9 29.83 1010 10 16.0934 0.01 0.254
5:55 am 05:55 Mostly Cloudy 69 20.5 67 19.2 92 92 NNW 6 9 29.83 1010 10 16.0934 0.02 0.508
6:15 am 06:15 Cloudy 69 20.4 67 19.2 93 93 NNW 6 9 29.85 1011 10 16.0934 N/A
6:35 am 06:35 Cloudy 69 20.4 67 19.2 93 93 N 9 15 29.85 1011 10 16.0934 N/A
6:55 am 06:55 Cloudy 68 20.2 66 19 93 93 N 12 19 29.85 1011 10 16.0934 0 0
7:15 am 07:15 Cloudy 68 20.2 66 19 93 93 N 10 17 29.88 1012 10 16.0934 N/A
7:35 am 07:35 Cloudy 68 20.1 66 18.7 92 92 N 14 22 29.88 1012 10 16.0934 N/A
7:55 am 07:55 Cloudy 68 20.1 65 18.6 91 91 N 14 22 29.88 1012 10 16.0934 N/A
8:15 am 08:15 Cloudy 68 20.2 65 18.6 91 91 N 16 26 29.88 1012 10 16.0934 N/A
8:35 am 08:35 Cloudy 68 20.1 65 18.4 90 90 N 17 28 29.88 1012 10 16.0934 N/A
8:55 am 08:55 Cloudy 68 20.2 64 18 87 87 N 18 30 29.88 1012 10 16.0934 N/A
9:15 am 09:15 Cloudy 68 20.2 64 17.8 86 86 NNE 17 28 29.91 1013 10 16.0934 N/A
9:35 am 09:35 Cloudy 69 20.3 64 17.5 84 84 N 22 35 29.91 1013 10 16.0934 N/A
9:55 am 09:55 Cloudy 69 20.5 64 17.8 85 85 N 16 26 29.91 1013 10 16.0934 N/A
10:15 am 10:15 Cloudy 69 20.3 63 17.3 83 83 N 21 33 29.97 1015 10 16.0934 N/A
10:35 am 10:35 Cloudy 68 20.2 63 17.2 83 83 NNE 18 30 29.97 1015 7 11.26538 N/A
10:55 am 10:55 Cloudy 69 20.4 63 17.4 83 83 NNE 17 28 29.97 1015 7 11.26538 N/A
11:15 am 11:15 Cloudy 70 21 63 17.1 79 79 N 22 35 29.94 1014 7 11.26538 N/A
11:35 am 11:35 Cloudy 70 21 62 16.9 78 78 NNE 20 31 29.94 1014 7 11.26538 N/A
11:55 am 11:55 Cloudy 70 21.1 63 17 78 78 N 14 22 29.94 1014 7 11.26538 N/A
12:15 pm 12:15 Cloudy 70 21.2 63 17 77 77 NNE 18 30 29.94 1014 7 11.26538 N/A
12:35 pm 12:35 Cloudy 71 21.4 63 17.2 77 77 NNE 17 28 29.97 1015 10 16.0934 N/A
12:55 pm 12:55 Cloudy 71 21.9 63 17 74 74 N 18 30 29.97 1015 7 11.26538 0.11 2.794
1:15 pm 13:15 Cloudy 73 22.8 62 16.6 68 68 NNE 17 28 29.97 1015 7 11.26538 N/A
1:35 pm 13:35 Cloudy with Haze 74 23.1 61 16.1 65 65 N 20 31 29.97 1015 5 8.0467 0.02 0.508
1:55 pm 13:55 Mostly Cloudy with Haze 76 24.5 62 16.5 61 61 N 18 30 29.94 1014 5 8.0467 0.02 0.508
2:15 pm 14:15 Mostly Cloudy with Haze 76 24.4 59 15.2 57 57 NNE 18 30 29.94 1014 5 8.0467 N/A
2:35 pm 14:35 Mostly Cloudy with Haze 77 24.8 59 15 55 55 N 21 33 29.94 1014 5 8.0467 N/A
2:55 pm 14:55 Hazy 77 25 56 13.4 49 49 NNE 17 28 29.94 1014 3 4.82802 N/A
3:15 pm 15:15 Hazy 76 24.4 54 12.4 47 47 N 17 28 29.94 1014 4 6.43736 N/A
3:35 pm 15:35 Hazy 77 24.9 53 11.6 43 43 NNE 16 26 29.94 1014 4 6.43736 N/A
3:55 pm 15:55 Hazy 77 24.9 51 10.7 41 41 NNE 18 30 29.94 1014 4 6.43736 0 0
4:15 pm 16:15 Hazy 77 25.1 54 12.1 44 44 N 21 33 29.94 1014 4 6.43736 N/A
4:35 pm 16:35 Hazy 78 25.3 53 11.7 43 43 NNE 15 24 29.91 1013 4 6.43736 N/A
4:55 pm 16:55 Hazy 77 25.1 54 12.1 44 44 N 17 28 29.91 1013 4 6.43736 N/A
5:15 pm 17:15 Hazy 76 24.4 54 12.1 46 46 N 21 33 29.91 1013 4 6.43736 N/A
5:35 pm 17:35 Hazy 74 23.5 54 12.2 49 49 N 17 28 29.91 1013 4 6.43736 N/A
5:55 pm 17:55 Hazy 76 24.6 55 12.9 48 48 NNE 15 24 29.91 1013 4 6.43736 N/A
6:15 pm 18:15 Hazy 75 23.8 54 12.1 48 48 N 17 28 29.91 1013 5 8.0467 N/A
6:35 pm 18:35 Hazy 74 23.1 55 12.6 52 52 N 14 22 29.94 1014 5 8.0467 N/A
6:55 pm 18:55 Hazy 75 24.1 54 12.4 48 48 NNE 13 20 29.91 1013 5 8.0467 0 0
7:15 pm 19:15 Sunny 75 23.8 54 12 48 48 NNE 12 19 29.91 1013 7 11.26538 N/A
7:35 pm 19:35 Sunny 74 23.5 53 11.6 47 47 NNE 16 26 29.94 1014 7 11.26538 N/A
7:55 pm 19:55 Hazy 73 23 54 12.1 50 50 NNE 10 17 29.97 1015 5 8.0467 N/A
8:15 pm 20:15 Hazy 73 22.5 54 12.2 52 52 NNE 13 20 29.97 1015 5 8.0467 N/A
8:35 pm 20:35 Sunny 71 21.6 53 11.6 53 53 NNE 10 17 30 1016 7 11.26538 N/A
8:55 pm 20:55 Sunny 69 20.5 54 12.2 59 59 NNE 7 11 30 1016 7 11.26538 N/A
9:15 pm 21:15 Clear 67 19.6 54 12.2 62 62 NNE 6 9 30.03 1017 7 11.26538 N/A
9:35 pm 21:35 Clear 65 18.5 55 12.5 68 68 NNE 6 9 30.06 1018 7 11.26538 N/A
9:55 pm 21:55 Clear 64 17.6 55 12.6 73 73 N 6 9 30.06 1018 7 11.26538 N/A
10:15 pm 22:15 Clear 62 16.7 56 13.1 79 79 N 5 7 30.09 1019 7 11.26538 N/A
10:35 pm 22:35 Hazy 61 16.1 56 13.2 83 83 N 6 9 30.12 1020 4 6.43736 N/A
10:55 pm 22:55 Clear 60 15.7 56 13.2 85 85 NNW 7 11 30.12 1020 7 11.26538 N/A
11:15 pm 23:15 Clear 60 15.5 55 13 85 85 NNW 6 9 30.12 1020 7 11.26538 N/A
11:35 pm 23:35 Clear 59 15 55 12.9 87 87 Calm 30.12 1020 7 11.26538 N/A
11:55 pm 23:55 Clear 59 15.1 56 13.1 88 88 N 3 6 30.12 1020 7 11.26538 N/A

Powered by AerisWeather